Temp
2 1 1 2 2 1 1 2 2 2 3 4 3 4 5 5 5 5 5 6 6 6 7 7 7 8 8 8 8 8 9 9 9 9 10 9 10 10
0 1 1 1 2 2 2 2 2 3 2 2 3 4 4 4 4 5 5 5 5 5 5 6 7 7 7 8 9 8 9 9 9 9 10 10 10 10
-0 -0 1 1 1 2 1 2 2 2 2 3 2 2 3 3 4 4 4 4 5 5 5 6 7 7 6 7 8 8 8 9 8 9 9 9 9 10
-1 -1 -0 -0 0 0 1 1 1 1 1 1 2 2 2 2 3 3 4 4 4 4 5 5 5 6 6 7 7 7 8 8 8 8 9 9 9 9
-1 -1 -1 -1 -1 -1 -1 -1 -0 0 0 1 1 1 1 1 1 2 2 3 3 4 4 5 5 5 5 6 6 6 7 7 7 7 8 8 8 8
-2 -2 -2 -1 -1 -1 -1 -1 -2 -1 -1 -1 -1 -0 -0 -0 0 1 1 2 3 3 3 4 4 4 5 5 5 5 5 6 6 6 7 6 7 7
-3 -3 -3 -2 -2 -2 -2 -2 -2 -2 -2 -2 -2 -2 -3 -2 -2 -1 0 1 2 2 2 3 3 3 4 4 4 4 4 4 5 5 5 5 6 6
-3 -3 -3 -3 -3 -2 -2 -2 -2 -3 -3 -3 -3 -3 -3 -3 -3 -2 -1 -1 -0 -0 0 3 2 2 2 2 2 2 3 3 3 3 4 4 4 4
-3 -3 -3 -3 -3 -3 -3 -3 -3 -3 -3 -3 -3 -4 -3 -3 -3 -3 -3 -3 -2 -1 -2 1 1 1 2 1 1 2 2 2 2 2 1 1 1 2
-4 -4 -4 -4 -4 -4 -4 -4 -4 -4 -4 -4 -4 -4 -4 -4 -4 -5 -3 -3 -3 -2 -3 -3 -1 -0 0 0 1 1 1 0 -1 -1 -0 0 1 2
-5 -5 -5 -5 -5 -5 -5 -4 -5 -5 -5 -4 -4 -4 -4 -4 -5 -5 -5 -6 -6 -6 -6 -5 -4 -2 -0 0 0 0 -1 -1 -1 -1 -1 -1 -0 0
-6 -5 -5 -5 -6 -6 -6 -5 -5 -5 -5 -5 -5 -5 -5 -5 -5 -6 -6 -6 -7 -7 -8 -7 -6 -7 -6 -2 -2 -2 -2 -2 -2 -1 -1 -1 -1 -1
-6 -6 -6 -6 -6 -6 -7 -6 -6 -6 -6 -6 -6 -6 -5 -6 -6 -6 -6 -7 -7 -8 -9 -9 -8 -9 -10 -9 -3 -2 -2 -3 -2 -2 -2 -2 -2 -2
-7 -7 -7 -7 -7 -7 -8 -8 -7 -7 -6 -6 -6 -7 -7 -7 -7 -7 -7 -7 -7 -7 -8 -8 -9 -10 -11 -10 -10 -6 -3 -4 -4 -4 -4 -4 -2 -3
-9 -7 -7 -8 -8 -8 -8 -9 -7 -7 -7 -7 -7 -7 -7 -7 -8 -8 -8 -8 -8 -8 -8 -9 -9 -10 -10 -10 -10 -7 -9 -5 -5 -5 -5 -5 -4 -3
-9 -10 -10 -9 -9 -8 -9 -10 -9 -8 -8 -8 -8 -8 -8 -8 -8 -8 -8 -8 -8 -8 -8 -9 -9 -10 -9 -9 -10 -8 -8 -11 -8 -6 -6 -5 -4 -4
-10 -10 -10 -10 -10 -10 -9 -9 -9 -9 -9 -9 -9 -8 -9 -9 -9 -9 -9 -10 -10 -10 -10 -10 -10 -10 -9 -9 -9 -9 -10 -11 -11 -10 -7 -5 -4 -5
-11 -10 -10 -10 -10 -10 -10 -10 -10 -10 -10 -9 -9 -9 -9 -10 -10 -10 -10 -10 -10 -10 -11 -11 -10 -9 -9 -9 -9 -10 -10 -11 -10 -9 -9 -9 -5 -4
-10 -10 -10 -10 -10 -10 -11 -10 -10 -10 -10 -10 -10 -10 -10 -11 -11 -11 -11 -11 -11 -11 -12 -12 -12 -13 -13 -14 -11 -10 -12 -11 -11 -9 -10 -10 -9 -5
-10 -9 -9 -10 -10 -10 -10 -10 -11 -11 -11 -11 -11 -11 -11 -12 -12 -12 -12 -12 -12 -13 -13 -13 -13 -14 -14 -14 -14 -10 -11 -12 -13 -11 -10 -10 -8 -7
-11 -10 -10 -10 -10 -10 -10 -10 -11 -11 -11 -11 -11 -12 -12 -12 -13 -13 -13 -13 -13 -13 -13 -13 -14 -14 -14 -13 -14 -13 -12 -12 -12 -12 -11 -10 -9 -8
-12 -11 -10 -10 -10 -10 -10 -11 -11 -11 -11 -11 -12 -12 -13 -13 -14 -14 -14 -14 -14 -14 -14 -14 -14 -14 -14 -14 -14 -13 -12 -12 -11 -11 -11 -12 -12 -14
-12 -11 -11 -10 -10 -11 -10 -11 -12 -12 -11 -12 -12 -13 -13 -14 -14 -14 -14 -14 -14 -14 -14 -14 -14 -14 -14 -15 -14 -14 -13 -13 -12 -10 -9 -11 -11 -10
Height
1518 1520 1519 1518 1519 1523 1524 1526 1525 1527 1527 1526 1528 1531 1533 1532 1533 1532 1533 1533 1534 1534 1532 1531 1529 1529 1527 1525 1526 1525 1524 1523 1522 1523 1519 1520 1519 1517
1517 1517 1519 1520 1518 1522 1524 1524 1523 1528 1528 1527 1527 1527 1526 1526 1527 1528 1528 1528 1530 1530 1528 1525 1524 1523 1522 1520 1517 1518 1518 1516 1516 1515 1514 1513 1512 1510
1517 1516 1516 1518 1518 1519 1521 1520 1521 1523 1525 1524 1526 1524 1525 1525 1524 1523 1523 1524 1523 1523 1522 1519 1518 1518 1517 1515 1511 1510 1511 1511 1510 1508 1508 1506 1505 1504
1515 1516 1514 1515 1517 1517 1518 1518 1518 1520 1520 1521 1520 1522 1522 1521 1521 1520 1520 1519 1518 1517 1516 1516 1512 1511 1510 1508 1505 1505 1503 1505 1503 1502 1500 1500 1499 1496
1514 1515 1514 1513 1516 1515 1515 1516 1516 1518 1518 1518 1518 1518 1518 1520 1518 1518 1517 1514 1514 1512 1512 1511 1509 1508 1505 1502 1501 1499 1498 1497 1496 1494 1493 1492 1490 1488
1513 1513 1514 1514 1514 1515 1515 1515 1515 1516 1516 1515 1515 1516 1517 1517 1516 1513 1514 1510 1508 1507 1507 1505 1505 1503 1500 1497 1495 1493 1493 1492 1489 1487 1485 1484 1481 1479
1512 1513 1513 1513 1513 1513 1513 1514 1516 1515 1515 1513 1513 1514 1514 1515 1512 1509 1507 1505 1501 1502 1501 1500 1499 1498 1495 1493 1490 1488 1487 1484 1482 1480 1478 1476 1475 1471
1510 1511 1511 1511 1511 1510 1512 1513 1514 1513 1512 1512 1512 1512 1512 1510 1509 1506 1503 1500 1499 1497 1494 1495 1492 1491 1490 1488 1485 1483 1479 1477 1476 1473 1471 1468 1464 1461
1509 1509 1508 1509 1509 1509 1510 1511 1510 1509 1509 1508 1508 1508 1506 1505 1503 1502 1500 1499 1496 1495 1490 1488 1487 1487 1484 1482 1479 1478 1474 1472 1469 1466 1463 1462 1456 1453
1503 1503 1504 1504 1505 1506 1507 1507 1507 1506 1506 1505 1505 1504 1502 1502 1499 1499 1496 1494 1492 1491 1487 1484 1482 1481 1479 1476 1473 1472 1469 1465 1464 1461 1458 1455 1452 1446
1497 1498 1499 1500 1502 1503 1504 1504 1504 1503 1502 1501 1501 1499 1498 1497 1497 1494 1493 1491 1488 1488 1484 1481 1479 1474 1473 1471 1468 1467 1463 1462 1461 1455 1450 1448 1445 1440
1493 1493 1494 1496 1498 1498 1499 1499 1498 1498 1498 1497 1496 1495 1494 1494 1492 1492 1489 1489 1487 1486 1480 1480 1478 1473 1466 1465 1467 1464 1460 1457 1453 1449 1445 1441 1437 1432
1486 1488 1488 1489 1490 1492 1493 1493 1494 1495 1494 1493 1492 1491 1491 1491 1490 1488 1486 1486 1485 1483 1480 1476 1473 1472 1469 1460 1459 1458 1454 1449 1443 1441 1438 1435 1432 1428
1480 1481 1483 1484 1486 1487 1487 1488 1488 1489 1488 1488 1488 1489 1488 1487 1486 1486 1484 1482 1480 1479 1476 1473 1469 1467 1464 1459 1454 1451 1449 1444 1439 1436 1431 1427 1425 1421
1473 1474 1475 1477 1479 1480 1481 1483 1483 1484 1485 1485 1485 1485 1484 1483 1482 1481 1480 1478 1476 1474 1471 1468 1466 1464 1460 1455 1451 1447 1442 1439 1435 1431 1426 1422 1418 1414
1466 1467 1469 1471 1473 1474 1476 1478 1477 1479 1480 1481 1481 1480 1479 1479 1477 1477 1476 1473 1472 1470 1468 1465 1462 1459 1456 1453 1448 1442 1440 1436 1431 1428 1422 1416 1413 1409
1460 1460 1462 1465 1467 1468 1468 1470 1472 1474 1475 1476 1476 1476 1475 1475 1474 1473 1472 1470 1469 1467 1464 1461 1459 1456 1452 1448 1443 1440 1436 1433 1429 1423 1416 1409 1408 1404
1456 1454 1455 1458 1460 1461 1462 1464 1466 1469 1470 1471 1471 1471 1471 1471 1470 1469 1468 1467 1465 1463 1460 1457 1453 1449 1446 1444 1441 1437 1434 1429 1424 1418 1413 1406 1399 1398
1450 1450 1450 1451 1453 1454 1456 1458 1461 1463 1465 1466 1466 1466 1466 1466 1466 1466 1465 1464 1462 1460 1458 1454 1451 1447 1443 1441 1438 1435 1430 1426 1420 1415 1410 1405 1396 1391
1443 1444 1443 1445 1447 1448 1449 1451 1454 1456 1459 1460 1460 1461 1462 1463 1463 1463 1462 1461 1460 1458 1455 1453 1450 1447 1444 1439 1433 1431 1428 1421 1417 1410 1404 1398 1392 1387
1437 1437 1438 1438 1439 1441 1443 1444 1447 1450 1452 1454 1455 1456 1458 1459 1459 1460 1459 1458 1457 1455 1453 1450 1447 1444 1440 1435 1430 1426 1423 1421 1415 1407 1399 1391 1383 1378
1430 1431 1431 1431 1433 1435 1436 1438 1440 1443 1446 1448 1450 1452 1454 1455 1456 1457 1457 1456 1454 1452 1450 1447 1444 1440 1437 1433 1428 1422 1416 1412 1410 1405 1399 1393 1386 1377
1424 1424 1425 1425 1427 1428 1430 1432 1435 1438 1440 1443 1445 1447 1450 1452 1453 1454 1453 1453 1452 1449 1446 1443 1441 1438 1434 1430 1425 1419 1414 1407 1402 1398 1396 1390 1384 1379
Wind_Speed
6 6 8 9 9 10 11 13 13 7 16 15 17 23 24 21 20 20 20 20 21 23 22 23 24 24 24 23 23 24 24 26 26 27 26 27 27 27
6 7 8 9 10 12 14 13 13 17 11 17 20 22 21 21 23 23 23 23 24 24 23 22 23 23 25 24 23 25 26 26 27 27 27 28 29 29
7 7 8 9 9 11 12 12 13 13 15 17 15 15 18 19 20 21 22 23 23 23 24 23 23 23 23 24 24 25 26 26 27 26 27 28 29 29
6 6 6 7 8 8 10 10 10 11 12 12 14 16 17 18 20 20 21 21 21 22 23 23 22 22 23 24 24 25 26 27 27 27 27 29 29 29
6 6 6 6 7 7 7 8 8 9 10 11 13 13 14 16 16 16 16 16 17 19 21 21 21 21 22 22 23 25 26 27 28 28 29 30 31 31
4 4 5 5 6 6 6 7 7 7 7 7 8 10 12 13 14 14 15 15 16 17 18 17 19 20 21 22 24 25 27 28 28 28 29 31 32 34
5 5 5 6 6 6 6 7 7 7 8 7 8 10 11 13 15 16 18 19 17 17 17 17 21 21 21 22 23 25 26 27 28 29 31 32 34 34
8 7 7 7 8 8 8 9 8 8 8 9 9 11 12 15 16 17 18 19 17 18 25 22 23 19 20 21 22 24 25 26 27 28 30 31 32 33
12 12 11 11 10 10 10 10 10 10 11 11 13 13 15 16 19 19 19 19 20 21 25 25 23 23 22 21 23 24 23 24 24 24 24 26 30 33
16 16 15 14 13 13 12 11 12 12 13 13 14 15 16 18 18 19 20 22 22 21 21 25 24 24 23 24 23 22 20 19 15 20 28 32 34 35
19 18 18 17 16 15 15 14 13 14 14 15 16 17 18 18 19 19 19 19 18 16 19 21 22 28 25 23 19 18 13 16 30 28 29 32 33 35
22 21 20 19 18 17 16 16 15 15 16 16 17 16 17 18 18 18 17 17 16 15 14 20 22 22 19 15 9 22 25 25 25 29 29 29 28 28
22 22 22 20 19 18 17 17 16 16 17 15 16 16 16 17 17 17 17 17 17 16 16 20 21 19 16 22 27 26 25 29 30 30 30 27 20 27
23 22 22 22 20 20 19 18 18 18 16 15 15 15 15 15 15 16 17 16 17 18 20 20 21 20 21 25 25 27 28 29 30 29 25 30 30 29
25 25 23 21 21 22 21 21 21 19 17 16 15 14 15 15 15 15 15 16 16 17 17 17 19 20 20 24 29 32 31 30 22 24 32 32 33 32
27 24 22 20 21 22 22 22 23 17 16 16 16 16 16 15 14 14 14 14 14 14 16 17 18 20 23 24 25 30 26 21 28 27 30 35 32 31
20 25 26 22 21 23 27 28 24 21 19 16 16 17 16 15 14 13 13 13 12 13 14 15 16 19 21 22 24 21 21 23 22 29 32 35 32 30
18 21 25 24 26 29 29 27 25 22 20 18 18 17 16 14 13 11 10 10 11 13 16 18 21 23 22 20 17 20 22 21 31 29 30 32 35 29
22 23 25 23 25 29 31 29 25 22 21 19 18 17 15 13 10 8 8 8 10 12 15 18 20 20 21 20 22 18 23 29 29 29 29 30 35 31
25 26 27 25 26 25 28 30 29 25 23 20 19 17 15 12 9 7 6 8 10 13 16 17 18 19 20 22 26 28 23 27 27 31 32 33 32 29
23 23 24 28 28 26 24 25 28 26 23 21 20 17 15 12 9 6 6 9 11 14 17 18 19 19 22 23 24 28 27 23 23 28 30 32 33 34
23 23 21 28 27 24 25 22 26 26 24 22 20 18 16 13 9 7 7 9 11 15 17 19 20 20 20 21 24 27 29 27 21 21 18 18 25 25
17 24 23 24 25 23 24 21 23 23 22 21 20 18 17 13 9 7 8 9 12 15 18 20 21 20 20 21 23 25 26 28 28 24 13 14 17 16
Wind_Direction
240 240 242 242 245 253 254 252 237 254 240 232 239 251 256 259 260 262 266 269 273 275 273 274 278 279 278 277 279 282 282 281 283 283 284 282 281 280
224 225 232 234 233 245 244 240 235 237 232 235 235 240 247 254 258 262 269 276 278 279 281 282 283 284 284 283 283 282 282 283 281 281 281 282 281 282
224 221 221 234 236 235 241 240 240 238 246 248 256 252 255 262 270 276 281 284 286 288 289 288 286 286 286 286 284 284 284 284 283 284 283 281 280 279
228 232 224 226 236 241 246 247 246 245 246 248 254 260 267 272 277 278 280 285 289 291 291 294 293 292 290 290 291 289 288 286 285 285 286 286 285 284
228 236 240 236 243 242 246 248 248 251 248 251 262 268 270 273 276 282 284 284 287 288 290 292 292 291 291 291 290 289 287 287 288 289 289 288 287 286
239 240 245 242 244 251 252 256 258 257 260 263 268 277 282 286 292 296 296 298 298 298 295 293 291 289 290 291 291 290 289 289 289 290 289 288 286 287
258 259 255 256 254 248 250 256 263 268 275 280 285 289 293 296 301 306 308 308 310 304 295 297 296 297 295 291 289 287 287 288 289 288 287 285 287 287
264 263 266 268 271 273 273 270 267 266 274 282 285 288 294 302 306 310 312 315 320 308 306 306 307 303 300 296 293 291 292 292 288 286 286 284 283 282
263 262 261 263 263 267 272 278 285 288 288 289 293 295 300 303 306 307 307 305 305 310 309 307 307 306 304 301 300 298 294 289 288 284 284 282 283 287
264 265 265 264 265 264 267 271 274 278 282 285 289 293 298 300 301 300 305 307 308 313 308 305 307 303 303 306 304 299 293 287 286 296 294 290 291 292
262 260 260 260 261 263 264 266 269 273 278 281 286 291 294 295 295 299 304 305 310 306 304 304 310 309 310 310 304 295 280 285 301 300 294 295 295 294
256 259 259 258 258 257 261 264 269 274 281 287 294 294 295 294 294 294 294 298 303 316 304 309 310 320 323 312 303 302 301 298 297 299 297 297 298 297
258 258 260 259 258 259 259 262 264 269 277 284 290 293 293 291 292 293 295 295 294 287 288 301 306 312 301 306 312 318 317 316 314 312 308 305 300 304
258 258 257 259 253 251 251 253 264 269 277 282 285 287 289 290 291 291 292 293 295 295 299 301 300 304 303 304 307 314 317 315 317 313 310 310 311 310
260 261 258 254 252 248 247 249 255 259 264 271 276 279 283 287 290 292 295 297 299 300 302 303 302 301 301 302 304 313 315 317 316 312 312 311 314 314
254 253 258 256 251 247 243 234 249 256 259 265 271 277 283 285 287 290 294 298 303 304 305 305 306 307 307 307 305 313 314 309 315 314 311 310 313 314
262 253 248 245 244 239 237 241 247 250 256 259 267 273 276 280 284 290 295 303 310 311 313 314 314 315 314 315 313 313 310 312 313 316 316 311 313 317
275 268 254 242 239 241 246 244 244 248 250 259 263 264 267 271 275 282 293 306 316 321 324 324 328 327 326 328 323 317 314 313 319 319 316 314 314 322
253 255 260 257 246 247 246 246 246 248 249 257 260 258 259 261 263 272 292 311 324 330 331 332 334 334 328 322 319 322 317 323 320 319 319 315 313 320
245 255 258 255 253 254 253 246 241 243 247 254 254 250 248 245 245 258 288 315 327 333 333 335 334 329 322 315 310 321 323 329 326 318 319 315 314 317
252 248 260 257 254 254 255 249 239 240 244 250 245 240 235 230 231 247 291 318 328 330 330 334 331 326 322 319 316 321 321 325 323 319 320 314 320 324
252 249 254 257 258 257 249 246 230 233 239 239 234 228 223 219 226 255 294 313 322 328 329 332 333 330 329 325 319 321 323 326 326 322 319 310 312 303
256 249 260 253 253 256 241 236 226 229 234 233 228 222 217 216 230 258 291 307 317 325 329 330 331 332 332 329 326 325 328 329 333 334 328 324 316 314